Weather in Yelenovka

Russia / Republic of Crimea     45°34′49″N   34°02′57″E
temp.,
°C
wind,
m/s
gust,
m/s
humid.,
%
clouds,
%
prec.,
mm/h
press.,
hPa
HPBL,
m
3 march, wed
wed300:00+3wsw7148052 0.0 1023479
03:00+5w7128275 0.0 1023627
06:00+2nw488083 0.0 1022232
09:00+4nnw697282 0.0 1025943
12:00+6nnw575917 0.0 1026948
15:00+8nnw67499 0.0 10261357
18:00+7nw46520 0.0 1027390
21:00+4w36750 0.0 1028107
4 march, thu
thu400:00+3w23770 0.0 102822
03:00+2sw23810 0.0 102725
06:00+1sw34850 0.0 102655
09:00+4sw46770 0.0 1025238
12:00+9sw67530 0.0 10241073
15:00+9sw79520 0.0 1022932
18:00+6sw711650 0.0 1019690
21:00+5sw714778 0.0 1019551
5 march, fri
fri500:00+4sw815800 0.0 1018539
03:00+4sw815810 0.0 1017525
06:00+4sw815836 0.0 1016446
09:00+6sw813744 0.0 1015454
12:00+11sw913590 0.0 1014725
15:00+12sw913550 0.0 1013850
18:00+9sw9147154 0.0 1012583
21:00+8sw8158671 0.0 1013477
6 march, sat
sat600:00+7sw8139390 0.0 1013358
03:00+7sw6119557 0.0 1014287
06:00+6sw369545 0.0 1014129
09:00+6n688672 0.0 1015408
12:00+6n6881100 0.0 1017460
15:00+4n4872100 0.6 1018826
18:00+5nnw5749100 0.0 10201279
21:00+3n4957100 0.0 1023636
7 march, sun
sun700:000n5106333 0.0 1026526
03:00−2nnw335517 0.0 102772
06:00−2w11510 0.0 102821
09:000wsw34440 0.0 1029321
12:00+4wnw45330 0.0 10281634
15:00+5wnw56300 0.0 10261685
18:00+2wnw56380 0.0 10241169
21:00−1wsw35560 0.0 1023101